Location: Unspecified
(34.4950°S, 58.5160°W)
Time: 03:46:53
(UTC+00:00)

Cosmos 2227 Rocket - Pass Details

Date: 04 December 2021
Orbit: 840 x 843 km, 71.0° (Epoch: 23 January)

Event Time Altitude Azimuth Distance (km) Brightness Sun altitude
Rises 23:22:06 0° 196° (SSW) 3,433 6.2 -5.7°
Reaches altitude 10° 23:24:39 10° 190° (S) 2,491 5.3 -6.1°
Maximum altitude 23:30:12 50° 115° (ESE) 1,075 2.6 -7.1°
Drops below altitude 10° 23:35:41 10° 39° (NE) 2,464 4.0 -8.0°
Enters shadow 23:36:05 - 38° (NE) 2,606 4.1 -8.1°
